ABV9AN EGCC-LFPG

Flight info

Callsign ABV9AN
Flight time 0h 56m
Altitude 35000
Route SANBA N859 HON UL612 WOD UM605 BIBAX
Aircraft B738/M-SDE2E3FGHIRWXY/LB1

Departure

Time 2026-05-08 16:53
Airport Manchester Airport (EGCC)

Arrival

Time 2026-05-08 17:49
Airport Charles de Gaulle International Airport (LFPG)
Time Latitude Longitude Altitude Speed Heading
2026-05-08 16:26 53.36393 -2.28613 254 ft 0 kts 224°
2026-05-08 16:44 53.36401 -2.28600 254 ft 4 kts 225°
2026-05-08 16:45 53.36416 -2.28574 254 ft 4 kts 223°
2026-05-08 16:45 53.36437 -2.28550 254 ft 4 kts 190°
2026-05-08 16:45 53.36460 -2.28556 254 ft 4 kts 137°
2026-05-08 16:45 53.36478 -2.28586 254 ft 3 kts 134°
2026-05-08 16:46 53.36480 -2.28590 254 ft 0 kts 134°
2026-05-08 16:48 53.36479 -2.28588 254 ft 1 kts 134°
2026-05-08 16:48 53.36465 -2.28564 254 ft 5 kts 134°
2026-05-08 16:48 53.36427 -2.28492 254 ft 11 kts 122°
2026-05-08 16:48 53.36386 -2.28359 254 ft 15 kts 125°
2026-05-08 16:49 53.36313 -2.28231 254 ft 15 kts 135°
2026-05-08 16:49 53.36243 -2.28114 254 ft 14 kts 135°
2026-05-08 16:49 53.36174 -2.28000 254 ft 14 kts 137°
2026-05-08 16:49 53.36102 -2.27902 254 ft 13 kts 142°
2026-05-08 16:50 53.36025 -2.27803 254 ft 15 kts 141°
2026-05-08 16:50 53.35930 -2.27727 254 ft 15 kts 175°
2026-05-08 16:50 53.35825 -2.27729 251 ft 15 kts 168°
2026-05-08 16:50 53.35733 -2.27641 248 ft 17 kts 160°
2026-05-08 16:51 53.35638 -2.27548 245 ft 15 kts 139°
2026-05-08 16:51 53.35552 -2.27432 245 ft 16 kts 141°
2026-05-08 16:51 53.35467 -2.27315 247 ft 16 kts 141°
2026-05-08 16:51 53.35365 -2.27194 245 ft 21 kts 164°
2026-05-08 16:52 53.35205 -2.27231 234 ft 21 kts 191°
2026-05-08 16:52 53.35081 -2.27273 227 ft 20 kts 191°
2026-05-08 16:52 53.34977 -2.27386 224 ft 21 kts 231°
2026-05-08 16:52 53.34788 -2.27776 222 ft 80 kts 231°
2026-05-08 16:53 53.33579 -2.30302 1039 ft 158 kts 231°
2026-05-08 16:53 53.32870 -2.31816 1855 ft 171 kts 230°
2026-05-08 16:53 53.32158 -2.33445 2599 ft 188 kts 244°
2026-05-08 16:54 53.32091 -2.35728 3141 ft 212 kts 285°
2026-05-08 16:54 53.32531 -2.38157 3623 ft 227 kts 282°
2026-05-08 16:54 53.32858 -2.40802 4147 ft 240 kts 268°
2026-05-08 16:54 53.32381 -2.43539 4687 ft 254 kts 233°
2026-05-08 16:55 53.31067 -2.45318 5784 ft 244 kts 200°
2026-05-08 16:55 53.29361 -2.45653 6584 ft 253 kts 176°
2026-05-08 16:55 53.27635 -2.45361 7695 ft 250 kts 170°
2026-05-08 16:55 53.25997 -2.44179 8331 ft 266 kts 151°
2026-05-08 16:56 53.24364 -2.42636 9132 ft 273 kts 153°
2026-05-08 16:56 53.22684 -2.41120 10069 ft 276 kts 154°
2026-05-08 16:56 53.20951 -2.39581 10630 ft 294 kts 154°
2026-05-08 16:56 53.19062 -2.37922 10865 ft 319 kts 154°
2026-05-08 16:57 53.17057 -2.36166 11528 ft 330 kts 154°
2026-05-08 16:57 53.15012 -2.34379 12359 ft 334 kts 154°
2026-05-08 16:57 53.12936 -2.32565 13225 ft 339 kts 155°
2026-05-08 16:57 53.10829 -2.30728 14054 ft 345 kts 155°
2026-05-08 16:58 53.08721 -2.28890 14847 ft 348 kts 155°
2026-05-08 16:58 53.06565 -2.27012 15705 ft 351 kts 155°
2026-05-08 16:58 53.04367 -2.25100 16587 ft 354 kts 155°
2026-05-08 16:58 53.02171 -2.23194 17426 ft 358 kts 155°
2026-05-08 16:59 52.99952 -2.21269 18251 ft 362 kts 155°
2026-05-08 16:59 52.97706 -2.19324 18940 ft 366 kts 155°
2026-05-08 16:59 52.95465 -2.17384 19620 ft 370 kts 155°
2026-05-08 16:59 52.93166 -2.15396 20271 ft 375 kts 155°
2026-05-08 17:00 52.90838 -2.13384 20917 ft 380 kts 155°
2026-05-08 17:00 52.88481 -2.11349 21553 ft 384 kts 155°
2026-05-08 17:00 52.86097 -2.09293 22197 ft 389 kts 155°
2026-05-08 17:00 52.83685 -2.07216 22809 ft 393 kts 155°
2026-05-08 17:01 52.81246 -2.05117 23405 ft 398 kts 155°
2026-05-08 17:01 52.78778 -2.02997 23929 ft 402 kts 156°
2026-05-08 17:01 52.76284 -2.00857 24408 ft 406 kts 156°
2026-05-08 17:01 52.73765 -1.98698 24828 ft 411 kts 156°
2026-05-08 17:02 52.71213 -1.96514 25257 ft 415 kts 156°
2026-05-08 17:02 52.68636 -1.94311 25732 ft 419 kts 156°
2026-05-08 17:02 52.66046 -1.92098 26198 ft 422 kts 156°
2026-05-08 17:02 52.63427 -1.89865 26632 ft 426 kts 156°
2026-05-08 17:03 52.60785 -1.87616 27056 ft 429 kts 156°
2026-05-08 17:03 52.58121 -1.85351 27495 ft 433 kts 156°
2026-05-08 17:03 52.55434 -1.83070 27909 ft 436 kts 157°
2026-05-08 17:03 52.52763 -1.80805 28310 ft 440 kts 157°
2026-05-08 17:04 52.50035 -1.78494 28689 ft 443 kts 157°
2026-05-08 17:04 52.47287 -1.76170 29064 ft 446 kts 157°
2026-05-08 17:04 52.44518 -1.73832 29444 ft 449 kts 157°
2026-05-08 17:04 52.41730 -1.71479 29807 ft 452 kts 157°
2026-05-08 17:05 52.38924 -1.69114 30167 ft 455 kts 157°
2026-05-08 17:05 52.36100 -1.66740 30486 ft 457 kts 157°
2026-05-08 17:05 52.33269 -1.64381 30899 ft 456 kts 158°
2026-05-08 17:05 52.30443 -1.62059 31357 ft 455 kts 158°
2026-05-08 17:06 52.27614 -1.59749 31798 ft 455 kts 158°
2026-05-08 17:06 52.24781 -1.57441 32169 ft 455 kts 158°
2026-05-08 17:06 52.21937 -1.55123 32571 ft 456 kts 158°
2026-05-08 17:06 52.19108 -1.52816 33014 ft 455 kts 158°
2026-05-08 17:07 52.16277 -1.50507 33457 ft 455 kts 158°
2026-05-08 17:07 52.13448 -1.48203 33883 ft 455 kts 158°
2026-05-08 17:07 52.10612 -1.45896 34225 ft 456 kts 158°
2026-05-08 17:07 52.07767 -1.43588 34486 ft 459 kts 158°
2026-05-08 17:08 52.04912 -1.41270 34874 ft 458 kts 158°
2026-05-08 17:08 52.02067 -1.38952 35055 ft 457 kts 158°
2026-05-08 17:08 51.96402 -1.34349 35071 ft 454 kts 158°
2026-05-08 17:09 51.90740 -1.29788 35081 ft 455 kts 158°
2026-05-08 17:09 51.85067 -1.25233 35078 ft 456 kts 158°
2026-05-08 17:10 51.79386 -1.20681 35065 ft 456 kts 158°
2026-05-08 17:10 51.73733 -1.16161 35051 ft 456 kts 158°
2026-05-08 17:11 51.68050 -1.11629 35052 ft 456 kts 158°
2026-05-08 17:11 51.62358 -1.07095 35049 ft 456 kts 156°
2026-05-08 17:12 51.57016 -1.01494 35052 ft 460 kts 147°
2026-05-08 17:12 51.51861 -0.95391 35044 ft 460 kts 147°
2026-05-08 17:13 51.46658 -0.89431 35071 ft 459 kts 148°
2026-05-08 17:13 51.41695 -0.82937 35079 ft 463 kts 140°
2026-05-08 17:14 51.36997 -0.75878 35078 ft 464 kts 139°
2026-05-08 17:14 51.32291 -0.68814 35063 ft 464 kts 140°
2026-05-08 17:15 51.27552 -0.61826 35077 ft 464 kts 140°
2026-05-08 17:15 51.22792 -0.54880 35078 ft 464 kts 140°
2026-05-08 17:16 51.18025 -0.47951 35075 ft 464 kts 140°
2026-05-08 17:16 51.13257 -0.41036 35074 ft 463 kts 140°
2026-05-08 17:17 51.08488 -0.34138 35077 ft 463 kts 140°
2026-05-08 17:17 51.03716 -0.27254 35084 ft 463 kts 140°
2026-05-08 17:18 50.98940 -0.20385 35073 ft 463 kts 140°
2026-05-08 17:18 50.94162 -0.13533 35077 ft 463 kts 140°
2026-05-08 17:19 50.89385 -0.06702 35075 ft 462 kts 140°
2026-05-08 17:19 50.84611 0.00106 35071 ft 462 kts 140°
2026-05-08 17:20 50.79834 0.06901 35078 ft 462 kts 140°
2026-05-08 17:20 50.75073 0.13630 35079 ft 463 kts 141°
2026-05-08 17:21 50.70077 0.20033 34809 ft 463 kts 144°
2026-05-08 17:21 50.67566 0.23157 34463 ft 455 kts 144°
2026-05-08 17:21 50.65104 0.26242 34064 ft 449 kts 143°
2026-05-08 17:22 50.62681 0.29305 33608 ft 444 kts 143°
2026-05-08 17:22 50.60294 0.32337 33209 ft 438 kts 143°
2026-05-08 17:22 50.57937 0.35331 32801 ft 433 kts 143°
2026-05-08 17:22 50.55611 0.38289 32451 ft 427 kts 143°
2026-05-08 17:23 50.53312 0.41214 32052 ft 423 kts 143°
2026-05-08 17:23 50.51035 0.44109 31671 ft 419 kts 143°
2026-05-08 17:23 50.48776 0.46975 31294 ft 416 kts 143°
2026-05-08 17:23 50.46534 0.49814 30899 ft 412 kts 143°
2026-05-08 17:24 50.44303 0.52633 30439 ft 411 kts 143°
2026-05-08 17:24 50.42066 0.55454 30068 ft 416 kts 143°
2026-05-08 17:24 50.39782 0.58329 29620 ft 424 kts 143°
2026-05-08 17:24 50.37491 0.61215 29180 ft 421 kts 143°
2026-05-08 17:25 50.35223 0.64068 28786 ft 415 kts 143°
2026-05-08 17:25 50.32994 0.66873 28495 ft 407 kts 143°
2026-05-08 17:25 50.30803 0.69629 28113 ft 402 kts 143°
2026-05-08 17:25 50.28635 0.72353 27724 ft 398 kts 143°
2026-05-08 17:26 50.26490 0.75045 27336 ft 393 kts 143°
2026-05-08 17:26 50.24366 0.77709 26957 ft 390 kts 143°
2026-05-08 17:26 50.22969 0.79460 26699 ft 387 kts 142°
2026-05-08 17:26 50.20876 0.82078 26334 ft 384 kts 142°
2026-05-08 17:27 50.18105 0.85539 25862 ft 379 kts 142°
2026-05-08 17:27 50.16751 0.87225 25734 ft 373 kts 142°
2026-05-08 17:27 50.14722 0.89744 25388 ft 372 kts 142°
2026-05-08 17:27 50.12705 0.92246 25043 ft 370 kts 142°
2026-05-08 17:28 50.10674 0.94764 24689 ft 379 kts 142°
2026-05-08 17:28 50.08585 0.97350 24292 ft 389 kts 142°
2026-05-08 17:28 50.06470 0.99965 23900 ft 387 kts 142°
2026-05-08 17:28 50.04238 1.02256 23501 ft 383 kts 153°
2026-05-08 17:29 50.01869 1.04091 23090 ft 378 kts 155°
2026-05-08 17:29 49.99498 1.05806 22690 ft 374 kts 156°
2026-05-08 17:29 49.97152 1.07483 22326 ft 369 kts 156°
2026-05-08 17:29 49.94840 1.09151 21952 ft 364 kts 155°
2026-05-08 17:30 49.92563 1.10814 21587 ft 360 kts 155°
2026-05-08 17:30 49.90318 1.12470 21226 ft 356 kts 155°
2026-05-08 17:30 49.88098 1.14119 20874 ft 352 kts 155°
2026-05-08 17:30 49.85900 1.15756 20521 ft 348 kts 155°
2026-05-08 17:31 49.83728 1.17378 20170 ft 345 kts 155°
2026-05-08 17:31 49.81582 1.18979 19832 ft 341 kts 155°
2026-05-08 17:31 49.79449 1.20571 19491 ft 338 kts 155°
2026-05-08 17:31 49.77340 1.22143 19154 ft 335 kts 155°
2026-05-08 17:32 49.75256 1.23695 18827 ft 332 kts 155°
2026-05-08 17:32 49.73188 1.25235 18494 ft 328 kts 154°
2026-05-08 17:32 49.71165 1.26739 18139 ft 326 kts 154°
2026-05-08 17:32 49.69132 1.28249 17764 ft 323 kts 154°
2026-05-08 17:33 49.67121 1.29741 17433 ft 319 kts 154°
2026-05-08 17:33 49.65133 1.31216 17097 ft 315 kts 155°
2026-05-08 17:33 49.63168 1.32672 16784 ft 312 kts 155°
2026-05-08 17:33 49.61221 1.34113 16449 ft 309 kts 155°
2026-05-08 17:34 49.59292 1.35539 16140 ft 306 kts 155°
2026-05-08 17:34 49.57380 1.36952 15818 ft 304 kts 154°
2026-05-08 17:34 49.55481 1.38354 15514 ft 301 kts 154°
2026-05-08 17:34 49.53597 1.39744 15196 ft 299 kts 155°
2026-05-08 17:35 49.51724 1.41124 14887 ft 297 kts 155°
2026-05-08 17:35 49.49862 1.42495 14580 ft 298 kts 155°
2026-05-08 17:35 49.47977 1.43881 14270 ft 302 kts 155°
2026-05-08 17:35 49.46061 1.45290 13955 ft 309 kts 156°
2026-05-08 17:36 49.44102 1.46728 13595 ft 314 kts 156°
2026-05-08 17:36 49.42136 1.48171 13221 ft 312 kts 155°
2026-05-08 17:36 49.40190 1.49599 12885 ft 308 kts 155°
2026-05-08 17:36 49.38266 1.51011 12554 ft 305 kts 155°
2026-05-08 17:37 49.36361 1.52406 12232 ft 302 kts 155°
2026-05-08 17:37 49.34472 1.53786 11911 ft 299 kts 155°
2026-05-08 17:37 49.32600 1.55153 11596 ft 297 kts 154°
2026-05-08 17:37 49.30935 1.56969 11274 ft 295 kts 130°
2026-05-08 17:38 49.29971 1.59692 11058 ft 290 kts 107°
2026-05-08 17:38 49.29694 1.62722 10791 ft 286 kts 93°
2026-05-08 17:38 49.29578 1.65758 10488 ft 286 kts 93°
2026-05-08 17:38 49.29410 1.68813 10238 ft 290 kts 101°
2026-05-08 17:39 49.28606 1.71649 10006 ft 295 kts 123°
2026-05-08 17:39 49.27431 1.74257 9758 ft 298 kts 126°
2026-05-08 17:39 49.26210 1.76825 9491 ft 299 kts 126°
2026-05-08 17:39 49.24982 1.79399 9221 ft 300 kts 127°
2026-05-08 17:40 49.23723 1.81928 8935 ft 297 kts 133°
2026-05-08 17:40 49.22304 1.84178 8683 ft 291 kts 136°
2026-05-08 17:40 49.20877 1.86340 8425 ft 287 kts 136°
2026-05-08 17:40 49.19451 1.88465 8172 ft 286 kts 136°
2026-05-08 17:41 49.18029 1.90572 7916 ft 284 kts 136°
2026-05-08 17:41 49.16608 1.92657 7667 ft 282 kts 136°
2026-05-08 17:41 49.15191 1.94724 7417 ft 281 kts 136°
2026-05-08 17:41 49.13779 1.96772 7167 ft 280 kts 136°
2026-05-08 17:42 49.12368 1.98806 6922 ft 278 kts 136°
2026-05-08 17:42 49.10959 2.00827 6676 ft 277 kts 136°
2026-05-08 17:42 49.09553 2.02833 6431 ft 276 kts 136°
2026-05-08 17:42 49.08151 2.04818 6170 ft 274 kts 136°
2026-05-08 17:43 49.06754 2.06783 5922 ft 271 kts 136°
2026-05-08 17:43 49.05381 2.08704 5698 ft 265 kts 137°
2026-05-08 17:43 49.04046 2.10568 5517 ft 254 kts 135°
2026-05-08 17:43 49.03045 2.12658 5297 ft 237 kts 116°
2026-05-08 17:44 49.02313 2.14821 5095 ft 223 kts 117°
2026-05-08 17:44 49.01611 2.16844 4884 ft 210 kts 117°
2026-05-08 17:44 49.00947 2.18762 4627 ft 200 kts 114°
2026-05-08 17:44 49.00739 2.20773 4460 ft 198 kts 79°
2026-05-08 17:45 49.00985 2.22832 4200 ft 198 kts 84°
2026-05-08 17:45 49.01071 2.24909 3930 ft 195 kts 86°
2026-05-08 17:45 49.01154 2.26949 3667 ft 189 kts 85°
2026-05-08 17:45 49.01247 2.28906 3430 ft 182 kts 85°
2026-05-08 17:46 49.01343 2.30815 3200 ft 181 kts 84°
2026-05-08 17:46 49.01440 2.32721 2957 ft 178 kts 84°
2026-05-08 17:46 49.01537 2.34601 2719 ft 179 kts 84°
2026-05-08 17:46 49.01635 2.36497 2478 ft 181 kts 85°
2026-05-08 17:47 49.01734 2.38413 2235 ft 181 kts 84°
2026-05-08 17:47 49.01830 2.40278 1987 ft 170 kts 84°
2026-05-08 17:47 49.01918 2.41967 1781 ft 152 kts 84°
2026-05-08 17:47 49.01972 2.43009 1649 ft 147 kts 84°
2026-05-08 17:48 49.02080 2.45073 1431 ft 146 kts 85°
2026-05-08 17:48 49.02155 2.46612 1218 ft 145 kts 84°
2026-05-08 17:48 49.02242 2.48147 1004 ft 146 kts 84°
2026-05-08 17:48 49.02322 2.49703 790 ft 148 kts 83°
2026-05-08 17:49 49.02409 2.51266 572 ft 146 kts 84°
2026-05-08 17:49 49.02493 2.52809 370 ft 145 kts 84°
2026-05-08 17:49 49.02568 2.54194 353 ft 109 kts 86°
2026-05-08 17:49 49.02609 2.55016 361 ft 40 kts 86°
2026-05-08 17:50 49.02559 2.55326 357 ft 26 kts 114°
2026-05-08 17:50 49.02488 2.55558 356 ft 19 kts 117°
2026-05-08 17:50 49.02404 2.55614 354 ft 13 kts 175°
2026-05-08 17:50 49.02312 2.55625 358 ft 14 kts 175°
2026-05-08 17:51 49.02214 2.55635 353 ft 14 kts 174°
2026-05-08 17:51 49.02116 2.55643 355 ft 14 kts 193°
2026-05-08 17:51 49.02065 2.55535 359 ft 14 kts 266°
2026-05-08 17:51 49.02057 2.55387 353 ft 14 kts 265°
2026-05-08 17:52 49.02048 2.55226 353 ft 18 kts 266°
2026-05-08 17:52 49.02017 2.55076 356 ft 11 kts 200°
2026-05-08 17:52 49.01860 2.55039 357 ft 14 kts 264°
2026-05-08 17:53 49.01850 2.54880 354 ft 16 kts 264°
2026-05-08 17:53 49.01840 2.54712 354 ft 16 kts 265°
2026-05-08 17:53 49.01832 2.54546 354 ft 17 kts 265°
2026-05-08 17:53 49.01821 2.54338 354 ft 23 kts 266°
2026-05-08 17:54 49.01808 2.54089 355 ft 23 kts 265°
2026-05-08 17:54 49.01795 2.53848 353 ft 23 kts 265°
2026-05-08 17:54 49.01783 2.53612 354 ft 22 kts 266°
2026-05-08 17:54 49.01769 2.53382 353 ft 22 kts 264°
2026-05-08 17:55 49.01757 2.53171 361 ft 20 kts 265°
2026-05-08 17:55 49.01746 2.52965 353 ft 18 kts 265°
2026-05-08 17:55 49.01700 2.52869 353 ft 14 kts 221°
2026-05-08 17:55 49.01642 2.52729 360 ft 17 kts 249°
2026-05-08 17:56 49.01562 2.52605 356 ft 16 kts 233°
2026-05-08 17:56 49.01538 2.52434 355 ft 18 kts 265°
2026-05-08 17:56 49.01526 2.52210 359 ft 24 kts 265°
2026-05-08 17:56 49.01512 2.51945 356 ft 25 kts 265°
2026-05-08 17:57 49.01499 2.51692 359 ft 23 kts 265°
2026-05-08 17:57 49.01486 2.51461 361 ft 18 kts 264°
2026-05-08 17:57 49.01476 2.51274 353 ft 18 kts 265°
2026-05-08 17:57 49.01464 2.51070 355 ft 20 kts 264°
2026-05-08 17:58 49.01452 2.50831 359 ft 25 kts 265°
2026-05-08 17:58 49.01437 2.50561 353 ft 24 kts 265°
2026-05-08 17:58 49.01424 2.50317 359 ft 21 kts 265°
2026-05-08 17:58 49.01413 2.50118 360 ft 19 kts 265°
2026-05-08 17:59 49.01405 2.49977 353 ft 8 kts 263°
2026-05-08 17:59 49.01379 2.49950 353 ft 5 kts 185°
2026-05-08 17:59 49.01342 2.49953 353 ft 6 kts 175°
2026-05-08 17:59 49.01317 2.49956 353 ft 0 kts 175°